DW9234 Weather Reports


time (UTC)temp
F
wind
direction
speed
knots
gust
knots
rain 1hr
in
rain 24hr
in
rain mn
in
humidity
%
barometer
mb
20260831014003 75 46 0.0 0.0 0.00 0.00 0.13 75 1020.2
20260831012004 76 46 0.0 0.0 0.00 0.00 0.13 75 1020.4
20260831011004 76 46 0.0 0.0 0.00 0.00 0.13 75 1020.3
20260831010004 76 46 0.0 0.0 0.00 0.00 0.13 74 1020.2
20260831005004 76 46 0.0 0.0 0.00 0.00 0.13 74 1020.1
20260831004003 76 46 0.0 0.0 0.00 0.00 0.13 74 1020.2
20260831003004 76 46 0.0 0.0 0.00 0.00 0.13 74 1019.9
20260831002004 76 46 0.0 0.0 0.00 0.00 0.13 74 1019.8
20260831001003 77 46 0.0 0.0 0.00 0.00 0.13 73 1019.8
20260831000004 77 46 0.0 0.0 0.00 0.00 0.13 73 1019.7
20260830235004 77 46 0.0 0.0 0.00 0.00 0.13 73 1019.7
20260830234004 77 46 0.0 0.0 0.00 0.00 0.13 73 1019.9
20260830232003 78 46 0.0 0.0 0.00 0.00 0.13 73 1019.7
20260830231004 78 46 0.0 0.0 0.00 0.00 0.13 72 1019.7
20260830230003 78 46 0.0 0.0 0.00 0.00 0.13 72 1019.7
20260830225004 78 46 0.0 0.0 0.00 0.00 0.13 72 1019.5
20260830224004 79 46 0.0 0.0 0.00 0.00 0.13 72 1019.5
20260830223004 79 46 0.0 0.0 0.00 0.00 0.13 72 1019.8
20260830222004 79 46 0.0 0.0 0.00 0.00 0.13 72 1019.7
20260830221004 80 314 0.0 0.0 0.00 0.00 0.13 72 1019.7
20260830220004 80 314 0.0 0.0 0.00 0.00 0.13 72 1019.6
20260830215004 80 309 0.0 0.0 0.00 0.00 0.13 72 1019.5
20260830214004 80 309 0.0 0.0 0.00 0.00 0.13 73 1019.6
20260830213004 80 5 0.0 0.0 0.00 0.00 0.13 73 1019.5
20260830212004 80 5 0.0 0.0 0.00 0.00 0.13 73 1019.5
20260830210004 80 355 0.0 0.0 0.00 0.00 0.13 74 1019.5
20260830205004 80 5 0.0 0.0 0.00 0.00 0.13 74 1019.6
20260830204004 80 5 0.0 0.0 0.00 0.00 0.13 74 1019.7
20260830203004 80 5 0.0 0.0 0.00 0.00 0.13 73 1020.0
20260830202004 80 5 0.0 0.0 0.00 0.00 0.13 72 1019.9
20260830201004 80 5 0.0 0.0 0.00 0.00 0.13 71 1019.9
20260830195004 80 5 0.0 0.0 0.00 0.00 0.13 67 1020.3
20260830194004 81 288 0.0 0.9 0.00 0.00 0.06 64 1020.6
20260830192004 82 17 0.0 1.7 0.00 0.00 0.00 60 1020.8
20260830191004 82 296 3.5 3.5 0.00 0.00 0.00 59 1020.8
20260830190004 82 84 1.7 5.2 0.00 0.00 0.00 58 1021.0
20260830185004 82 275 0.0 0.0 0.00 0.00 0.00 58 1021.1
20260830184004 82 221 0.9 5.2 0.00 0.00 0.00 57 1021.1
20260830183003 83 59 0.0 3.5 0.00 0.00 0.00 56 1021.3
20260830182003 83 90 0.0 6.1 0.00 0.00 0.00 56 1021.5
20260830181003 83 286 4.3 4.3 0.00 0.00 0.00 55 1021.6
20260830180004 84 242 4.3 9.6 0.00 0.00 0.00 53 1021.4
20260830175003 85 75 0.0 5.2 0.00 0.00 0.00 50 1021.6
20260830173004 84 75 0.9 4.3 0.00 0.00 0.00 56 1021.8
20260830171004 83 251 0.9 7.0 0.00 0.00 0.00 57 1022.0
20260830170004 83 272 0.0 7.0 0.00 0.00 0.00 56 1022.1
20260830165004 82 23 0.0 8.7 0.00 0.00 0.00 58 1022.2
20260830164004 83 313 0.9 7.8 0.00 0.00 0.00 58 1022.2
20260830163004 82 49 0.9 6.1 0.00 0.00 0.00 59 1022.3
20260830162003 81 18 0.0 7.8 0.00 0.00 0.00 61 1022.5
20260830161004 81 351 0.0 5.2 0.00 0.00 0.00 61 1022.4
20260830160004 81 108 0.9 3.5 0.00 0.00 0.00 62 1022.5
20260830155004 80 77 0.0 1.7 0.00 0.00 0.00 62 1022.5
20260830154004 80 261 0.0 5.2 0.00 0.00 0.00 62 1022.5
20260830153004 80 102 2.6 7.0 0.00 0.00 0.00 61 1022.5
20260830152003 80 84 0.9 6.1 0.00 0.00 0.00 65 1022.6
20260830151003 80 221 1.7 4.3 0.00 0.00 0.00 63 1022.7
20260830150003 78 275 3.5 4.3 0.00 0.00 0.00 65 1022.6
20260830145004 76 60 0.0 4.3 0.00 0.00 0.00 67 1022.6
20260830144004 76 91 0.0 6.1 0.00 0.00 0.00 68 1022.5
20260830143003 76 45 0.0 5.2 0.00 0.00 0.00 70 1022.6
20260830142004 75 38 0.9 6.1 0.00 0.00 0.00 71 1022.7
20260830141004 74 92 0.9 5.2 0.00 0.00 0.00 72 1022.9
20260830140004 73 104 6.1 6.1 0.00 0.00 0.00 75 1023.1
20260830135004 73 216 0.9 5.2 0.00 0.00 0.00 76 1023.4
20260830134004 72 87 3.5 4.3 0.00 0.00 0.00 77 1023.5
20260830133003 71 92 0.9 4.3 0.00 0.00 0.00 77 1023.6
20260830131003 69 113 1.7 7.0 0.00 0.00 0.00 78 1023.8
20260830130004 68 88 0.0 3.5 0.00 0.00 0.00 78 1024.0
20260830125004 68 98 0.0 3.5 0.00 0.00 0.00 78 1024.1
20260830124003 67 136 0.0 0.0 0.00 0.00 0.00 78 1024.2
20260830122004 66 91 0.0 0.0 0.00 0.00 0.00 78 1024.3
20260830121004 66 87 0.0 1.7 0.00 0.00 0.00 78 1024.2
20260830114004 64 292 0.0 0.0 0.00 0.00 0.00 77 1024.2
20260830112003 64 292 0.0 0.0 0.00 0.00 0.00 77 1024.1
20260830111004 63 292 0.0 0.0 0.00 0.00 0.00 76 1024.1
20260830110005 63 292 0.0 0.0 0.00 0.00 0.00 75 1024.1
20260830105003 63 292 0.0 0.0 0.00 0.00 0.00 75 1024.1
20260830104003 63 292 0.0 0.0 0.00 0.00 0.00 75 1024.1
20260830103004 63 292 0.0 0.0 0.00 0.00 0.00 75 1024.1
20260830102004 63 292 0.0 0.0 0.00 0.00 0.00 75 1024.0
20260830101004 63 292 0.0 0.0 0.00 0.00 0.00 75 1023.9
20260830100003 63 292 0.0 0.0 0.00 0.00 0.00 75 1024.0
20260830094003 62 292 0.0 0.0 0.00 0.00 0.00 75 1024.0
20260830093003 62 292 0.0 0.0 0.00 0.00 0.00 75 1024.0
20260830091004 62 292 0.0 0.0 0.00 0.00 0.00 74 1023.9
20260830090004 62 292 0.0 0.0 0.00 0.00 0.00 73 1023.9
20260830085003 62 292 0.0 0.0 0.00 0.00 0.00 73 1023.8
20260830082004 62 292 0.0 0.0 0.00 0.00 0.00 73 1024.1
20260830081004 62 292 0.0 0.0 0.00 0.00 0.00 73 1024.4
20260830080004 62 292 0.0 0.0 0.00 0.00 0.00 73 1024.5
20260830074003 62 292 0.0 0.0 0.00 0.00 0.00 73 1024.3
20260830073004 62 292 0.0 0.0 0.00 0.00 0.00 73 1024.4
20260830072004 62 292 0.0 0.0 0.00 0.00 0.00 73 1024.3
20260830071004 62 292 0.0 0.0 0.00 0.00 0.00 73 1024.4
20260830070004 62 292 0.0 0.0 0.00 0.00 0.00 73 1024.5
20260830065004 62 292 0.0 0.0 0.00 0.00 0.00 72 1024.5
20260830064004 62 292 0.0 0.0 0.00 0.00 0.00 71 1024.6
20260830063004 62 292 0.0 0.0 0.00 0.00 0.00 71 1024.7
20260830062004 62 292 0.0 0.0 0.00 0.00 0.00 70 1024.8
20260830061003 62 292 0.0 0.0 0.00 0.00 0.00 70 1024.7
20260830060004 62 292 0.0 0.0 0.00 0.00 0.00 70 1024.5
20260830055003 62 292 0.0 0.0 0.00 0.00 0.00 70 1024.7
20260830054004 62 292 0.0 0.0 0.00 0.00 0.00 69 1024.9
20260830053003 62 292 0.0 0.0 0.00 0.00 0.00 69 1024.9
20260830051004 62 292 0.0 0.0 0.00 0.00 0.00 68 1024.8
20260830050004 62 292 0.0 0.0 0.00 0.00 0.00 67 1024.7
20260830045004 63 292 0.0 0.0 0.00 0.00 0.00 66 1024.7
20260830044003 63 292 0.0 0.0 0.00 0.00 0.00 66 1024.4
20260830043004 63 292 0.0 0.0 0.00 0.00 0.00 65 1024.3
20260830042004 63 292 0.0 0.0 0.00 0.00 0.00 64 1024.4
20260830041003 64 292 0.0 0.0 0.00 0.00 0.00 64 1024.2
20260830040004 64 292 0.0 0.0 0.00 0.00 0.00 63 1024.1
20260830035004 64 292 0.0 0.0 0.00 0.00 0.00 63 1024.1
20260830033004 65 292 0.0 0.0 0.00 0.00 0.00 64 1024.1
20260830032003 65 292 0.0 0.0 0.00 0.00 0.00 63 1024.1
20260830031003 65 292 0.0 0.0 0.00 0.00 0.00 63 1024.2
20260830030004 65 292 0.0 0.0 0.00 0.00 0.00 61 1024.1
20260830025004 66 292 0.0 0.0 0.00 0.00 0.00 61 1024.2
20260830024004 66 292 0.0 0.0 0.00 0.00 0.00 61 1024.1
20260830022003 67 292 0.0 0.0 0.00 0.00 0.00 60 1024.3
20260830020003 67 292 0.0 0.0 0.00 0.00 0.00 59 1024.2
20260830015004 68 292 0.0 0.0 0.00 0.00 0.00 59 1024.3